H1 CPF 2 NER 2024 12 9 9 344 01 glonass131 H2 1301901 9131 39155 2024 12 9 0 0 0 2024 12 12 23 45 0 900 1 1 0 0 0 1 H9 10 0 60653 0.00000 0 -24754928.378 -4080996.639 4425463.733 10 0 60653 900.00000 0 -25126658.030 -3987285.956 1219192.218 10 0 60653 1800.00000 0 -25097737.700 -3810286.567 -2010864.246 10 0 60653 2700.00000 0 -24661016.365 -3605783.345 -5201650.616 10 0 60653 3600.00000 0 -23822985.214 -3430036.510 -8290810.818 10 0 60653 4500.00000 0 -22603581.663 -3337142.476 -11217930.040 10 0 60653 5400.00000 0 -21035439.421 -3376487.980 -13925741.526 10 0 60653 6300.00000 0 -19162615.355 -3590408.661 -16361271.664 10 0 60653 7200.00000 0 -17038846.854 -4012154.604 -18476898.416 10 0 60653 8100.00000 0 -14725413.988 -4664251.898 -20231300.277 10 0 60653 9000.00000 0 -12288697.958 -5557331.896 -21590275.566 10 0 60653 9900.00000 0 -9797540.367 -6689479.228 -22527415.059 10 0 60653 10800.00000 0 -7320516.101 -8046126.802 -23024614.509 10 0 60653 11700.00000 0 -4923235.810 -9600502.127 -23072417.411 10 0 60653 12600.00000 0 -2665792.039 -11314605.290 -22670182.283 10 0 60653 13500.00000 0 -600456.157 -13140676.093 -21826072.620 10 0 60653 14400.00000 0 1230278.329 -15023087.015 -20556871.514 10 0 60653 15300.00000 0 2795225.883 -16900580.784 -18887626.561 10 0 60653 16200.00000 0 4075551.084 -18708757.131 -16851134.012 10 0 60653 17100.00000 0 5065282.549 -20382703.371 -14487274.254 10 0 60653 18000.00000 0 5771280.874 -21859657.937 -11842213.371 10 0 60653 18900.00000 0 6212665.999 -23081595.424 -8967487.922 10 0 60653 19800.00000 0 6419731.858 -23997625.598 -5918991.916 10 0 60653 20700.00000 0 6432397.360 -24566107.327 -2755886.552 10 0 60653 21600.00000 0 6298261.594 -24756390.814 460545.782 10 0 60653 22500.00000 0 6070346.962 -24550117.389 3668081.099 10 0 60653 23400.00000 0 5804626.234 -23942024.752 6804744.719 10 0 60653 24300.00000 0 5557437.659 -22940226.081 9809991.464 10 0 60653 25200.00000 0 5382896.203 -21565952.986 12625853.843 10 0 60653 26100.00000 0 5330408.496 -19852774.085 15198037.792 10 0 60653 27000.00000 0 5442394.290 -17845322.031 17476946.917 10 0 60653 27900.00000 0 5752308.485 -15597581.419 19418617.606 10 0 60653 28800.00000 0 6283045.306 -13170807.407 20985549.090 10 0 60653 29700.00000 0 7045790.730 -10631159.441 22147414.264 10 0 60653 30600.00000 0 8039371.153 -8047145.657 22881639.097 10 0 60653 31500.00000 0 9250126.409 -5486981.164 23173840.273 10 0 60653 32400.00000 0 10652314.238 -3015966.845 23018112.930 10 0 60653 33300.00000 0 12209031.876 -693994.819 22417162.417 10 0 60653 34200.00000 0 13873619.486 1426717.947 21382276.326 10 0 60653 35100.00000 0 15591490.297 3303575.063 19933135.463 10 0 60653 36000.00000 0 17302314.478 4905144.780 18097464.997 10 0 60653 36900.00000 0 18942468.474 6212238.006 15910529.855 10 0 60653 37800.00000 0 20447649.654 7218474.236 13414481.267 10 0 60653 38700.00000 0 21755548.117 7930310.182 10657564.477 10 0 60653 39600.00000 0 22808463.763 8366528.074 7693200.751 10 0 60653 40500.00000 0 23555757.842 8557203.413 4578959.843 10 0 60653 41400.00000 0 23956033.919 8542194.306 1375442.001 10 0 60653 42300.00000 0 23978953.688 8369215.404 -1854908.694 10 0 60653 43200.00000 0 23606607.918 8091577.965 -5049035.773 10 0 60653 44100.00000 0 22834381.401 7765692.678 -8144521.033 10 0 60653 45000.00000 0 21671272.366 7448442.914 -11080827.787 10 0 60653 45900.00000 0 20139650.440 7194542.265 -13800509.945 10 0 60653 46800.00000 0 18274461.713 7053991.378 -16250360.653 10 0 60653 47700.00000 0 16121913.724 7069745.039 -18382475.475 10 0 60653 48600.00000 0 13737695.950 7275691.257 -20155207.192 10 0 60653 49500.00000 0 11184811.642 7695030.403 -21533991.867 10 0 60653 50400.00000 0 8531113.674 8339124.755 -22492028.998 10 0 60653 51300.00000 0 5846649.571 9206867.999 -23010802.151 10 0 60653 52200.00000 0 3200928.691 10284601.410 -23080430.195 10 0 60653 53100.00000 0 660227.312 11546579.543 -22699843.228 10 0 60653 54000.00000 0 -1714955.037 12955964.438 -21876781.163 10 0 60653 54900.00000 0 -3872181.885 14466304.769 -20627616.792 10 0 60653 55800.00000 0 -5769014.346 16023435.717 -18977008.730 10 0 60653 56700.00000 0 -7374515.155 17567717.840 -16957393.127 10 0 60653 57600.00000 0 -8670262.240 19036519.331 -14608325.983 10 0 60653 58500.00000 0 -9650833.005 20366836.299 -11975690.781 10 0 60653 59400.00000 0 -10323742.949 21497940.624 -9110788.413 10 0 60653 60300.00000 0 -10708845.215 22373944.488 -6069328.336 10 0 60653 61200.00000 0 -10837219.981 22946174.841 -2910341.431 10 0 60653 62100.00000 0 -10749603.563 23175259.658 304963.911 10 0 60653 63000.00000 0 -10494425.706 23032840.384 3514380.406 10 0 60653 63900.00000 0 -10125539.156 22502840.812 6655892.839 10 0 60653 64800.00000 0 -9699737.630 21582241.300 9668859.369 10 0 60653 65700.00000 0 -9274166.289 20281327.590 12495161.789 10 0 60653 66600.00000 0 -8903732.577 18623404.983 15080304.270 10 0 60653 67500.00000 0 -8638624.652 16643990.242 17374441.463 10 0 60653 68400.00000 0 -8522039.823 14389514.516 19333318.261 10 0 60653 69300.00000 0 -8588216.579 11915590.021 20919105.199 10 0 60653 70200.00000 0 -8860851.324 9284910.555 22101115.262 10 0 60653 71100.00000 0 -9351965.403 6564870.356 22856389.787 10 0 60653 72000.00000 0 -10061269.929 3824997.101 23170143.072 10 0 60653 72900.00000 0 -10976055.943 1134302.335 23036057.409 10 0 60653 73800.00000 0 -12071616.433 -1441343.797 22456422.399 10 0 60653 74700.00000 0 -13312185.116 -3841707.142 21442114.676 10 0 60653 75600.00000 0 -14652355.925 -6014451.766 20012416.595 10 0 60653 76500.00000 0 -16038927.107 -7917076.868 18194675.014 10 0 60653 77400.00000 0 -17413095.895 -9518447.882 16023804.067 10 0 60653 78300.00000 0 -18712914.411 -10799857.285 13541638.717 10 0 60653 79200.00000 0 -19875905.621 -11755569.450 10796148.960 10 0 60653 80100.00000 0 -20841730.200 -12392824.981 7840527.610 10 0 60653 81000.00000 0 -21554791.786 -12731302.478 4732167.733 10 0 60653 81900.00000 0 -21966669.480 -12802058.745 1531548.638 10 0 60653 82800.00000 0 -22038272.595 -12645990.916 -1698947.930 10 0 60653 83700.00000 0 -21741623.692 -12311885.050 -4896267.556 10 0 60653 84600.00000 0 -21061191.196 -11854134.118 -7997933.409 10 0 60653 85500.00000 0 -19994711.960 -11330223.307 -10943290.416 10 0 60654 0.00000 0 -18553466.211 -10798091.290 -13674716.306 10 0 60654 900.00000 0 -16761990.148 -10313481.666 -16138774.682 10 0 60654 1800.00000 0 -14657238.876 -9927400.423 -18287281.377 10 0 60654 2700.00000 0 -12287231.905 -9683789.094 -20078265.964 10 0 60654 3600.00000 0 -9709240.391 -9617515.378 -21476804.233 10 0 60654 4500.00000 0 -6987592.672 -9752767.897 -22455705.782 10 0 60654 5400.00000 0 -4191191.797 -10101924.166 -22996042.691 10 0 60654 6300.00000 0 -1390850.700 -10664939.832 -23087509.225 10 0 60654 7200.00000 0 1343441.976 -11429284.424 -22728606.444 10 0 60654 8100.00000 0 3945210.112 -12370424.972 -21926649.497 10 0 60654 9000.00000 0 6354019.820 -13452835.273 -20697599.187 10 0 60654 9900.00000 0 8517745.548 -14631486.101 -19065723.089 10 0 60654 10800.00000 0 10394479.455 -15853751.417 -17063094.852 10 0 60654 11700.00000 0 11954006.712 -17061648.324 -14728943.454 10 0 60654 12600.00000 0 13178788.145 -18194314.919 -12108866.949 10 0 60654 13500.00000 0 14064412.834 -19190620.791 -9253927.608 10 0 60654 14400.00000 0 14619505.586 -19991800.065 -6219647.310 10 0 60654 15300.00000 0 14865097.029 -20543996.620 -3064923.598 10 0 60654 16200.00000 0 14833486.270 -20800615.529 149112.097 10 0 60654 17100.00000 0 14566646.733 -20724383.433 3360272.012 10 0 60654 18000.00000 0 14114244.232 -20289033.168 6506503.018 10 0 60654 18900.00000 0 13531351.718 -19480543.864 9527068.969 10 0 60654 19800.00000 0 12875956.905 -18297886.252 12363702.998 10 0 60654 20700.00000 0 12206366.854 -16753243.260 14961709.248 10 0 60654 21600.00000 0 11578617.128 -14871697.303 17270994.821 10 0 60654 22500.00000 0 11043992.462 -12690397.144 19247014.183 10 0 60654 23400.00000 0 10646760.944 -10257238.032 20851609.929 10 0 60654 24300.00000 0 10422214.890 -7629108.180 22053735.575 10 0 60654 25200.00000 0 10395099.052 -4869771.855 22830047.984 10 0 60654 26100.00000 0 10578491.302 -2047473.903 23165358.956 10 0 60654 27000.00000 0 10973182.772 767638.286 23052937.585 10 0 60654 27900.00000 0 11567584.464 3506171.778 22494657.158 10 0 60654 28800.00000 0 12338166.128 6102116.808 21500982.600 10 0 60654 29700.00000 0 13250411.640 8495340.489 20090796.909 10 0 60654 30600.00000 0 14260253.863 10633843.521 18291067.574 10 0 60654 31500.00000 0 15315931.897 12475686.640 16136356.742 10 0 60654 32400.00000 0 16360195.603 13990506.299 13668181.783 10 0 60654 33300.00000 0 17332766.934 15160555.252 10934235.949 10 0 60654 34200.00000 0 18172955.829 15981222.837 7987481.951 10 0 60654 35100.00000 0 18822320.682 16461011.201 4885134.337 10 0 60654 36000.00000 0 19227260.308 16620966.560 1687549.460 10 0 60654 36900.00000 0 19341426.016 16493587.840 -1542955.418 10 0 60654 37800.00000 0 19127849.120 16121257.783 -4743330.189 10 0 60654 38700.00000 0 18560690.622 15554262.635 -7851041.699 10 0 60654 39600.00000 0 17626535.601 14848484.894 -10805318.765 10 0 60654 40500.00000 0 16325174.270 14062868.332 -13548365.606 10 0 60654 41400.00000 0 14669833.847 13256764.859 -16026517.389 10 0 60654 42300.00000 0 12686849.402 12487278.274 -18191312.673 10 0 60654 43200.00000 0 10414786.362 11806720.114 -20000459.631 10 0 60654 44100.00000 0 7903051.290 11260287.856 -21418675.441 10 0 60654 45000.00000 0 5210049.922 10884065.775 -22418381.301 10 0 60654 45900.00000 0 2400970.870 10703434.248 -22980239.116 10 0 60654 46800.00000 0 -454710.653 10731955.213 -23093519.619 10 0 60654 47700.00000 0 -3285903.074 10970780.362 -22756295.591 10 0 60654 48600.00000 0 -6022629.790 11408605.799 -21975457.775 10 0 60654 49500.00000 0 -8598706.821 12022173.130 -20766554.913 10 0 60654 50400.00000 0 -10954254.998 12777293.491 -19153462.971 10 0 60654 51300.00000 0 -13037942.715 13630348.816 -17167892.072 10 0 60654 52200.00000 0 -14808867.414 14530204.611 -14848742.729 10 0 60654 53100.00000 0 -16237999.767 15420451.509 -12241325.776 10 0 60654 54000.00000 0 -17309133.424 16241879.588 -9396462.818 10 0 60654 54900.00000 0 -18019304.246 16935080.278 -6369485.929 10 0 60654 55800.00000 0 -18378665.235 17443066.070 -3219156.983 10 0 60654 56700.00000 0 -18409825.988 17713798.227 -6528.051 10 0 60654 57600.00000 0 -18146687.575 17702517.229 3206235.052 10 0 60654 58500.00000 0 -17632824.173 17373779.464 6357043.734 10 0 60654 59400.00000 0 -16919481.038 16703116.355 9385070.005 10 0 60654 60300.00000 0 -16063273.510 15678247.965 12231900.800 10 0 60654 61200.00000 0 -15123683.412 14299801.618 14842642.669 10 0 60654 62100.00000 0 -14160456.792 12581506.303 17166957.546 10 0 60654 63000.00000 0 -13231010.446 10549854.834 19160011.754 10 0 60654 63900.00000 0 -12387953.855 8243247.161 20783322.087 10 0 60654 64800.00000 0 -11676828.176 5710648.888 22005484.530 10 0 60654 65700.00000 0 -11134155.053 3009818.382 22802773.171 10 0 60654 66600.00000 0 -10785875.493 205173.119 23159598.704 10 0 60654 67500.00000 0 -10646243.500 -2634619.611 23068818.086 10 0 60654 68400.00000 0 -10717220.927 -5439231.252 22531888.963 10 0 60654 69300.00000 0 -10988400.020 -8139335.656 21558864.807 10 0 60654 70200.00000 0 -11437458.754 -10669240.212 20168229.073 10 0 60654 71100.00000 0 -12031132.386 -12969377.185 18386569.235 10 0 60654 72000.00000 0 -12726663.265 -14988552.821 16248094.355 10 0 60654 72900.00000 0 -13473670.741 -16685860.701 13794002.678 10 0 60654 73800.00000 0 -14216364.946 -18032178.811 11071708.792 10 0 60654 74700.00000 0 -14896012.850 -19011186.197 8133943.042 10 0 60654 75600.00000 0 -15453553.353 -19619854.668 5037738.906 10 0 60654 76500.00000 0 -15832250.655 -19868392.737 1843327.007 10 0 60654 77400.00000 0 -15980272.318 -19779642.194 -1387042.845 10 0 60654 78300.00000 0 -15853080.630 -19387951.228 -4590327.965 10 0 60654 79200.00000 0 -15415532.960 -18737570.889 -7703942.106 10 0 60654 80100.00000 0 -14643598.753 -17880642.738 -10667001.276 10 0 60654 81000.00000 0 -13525616.991 -16874863.743 -13421539.269 10 0 60654 81900.00000 0 -12063037.720 -15780928.948 -15913666.539 10 0 60654 82800.00000 0 -10270613.748 -14659862.462 -18094647.172 10 0 60654 83700.00000 0 -8176032.583 -13570352.242 -19921870.696 10 0 60654 84600.00000 0 -5819003.217 -12566203.925 -21359697.994 10 0 60654 85500.00000 0 -3249836.145 -11694023.497 -22380163.652 10 0 60655 0.00000 0 -527577.189 -10991228.268 -22963520.549 10 0 60655 900.00000 0 2282226.919 -10484470.445 -23098616.535 10 0 60655 1800.00000 0 5110032.496 -10188540.513 -22783095.950 10 0 60655 2700.00000 0 7884971.167 -10105794.256 -22023424.458 10 0 60655 3600.00000 0 10537574.148 -10226126.643 -20834737.537 10 0 60655 4500.00000 0 13002435.734 -10527490.762 -19240517.869 10 0 60655 5400.00000 0 15220704.884 -10976937.164 -17272109.961 10 0 60655 6300.00000 0 17142302.023 -11532126.905 -14968083.375 10 0 60655 7200.00000 0 18727770.407 -12143251.838 -12373458.904 10 0 60655 8100.00000 0 19949687.406 -12755278.969 -9538814.359 10 0 60655 9000.00000 0 20793579.898 -13310422.661 -6519288.647 10 0 60655 9900.00000 0 21258308.996 -13750739.624 -3373504.457 10 0 60655 10800.00000 0 21355911.535 -14020737.199 -162430.949 10 0 60655 11700.00000 0 21110908.233 -14069885.687 3051791.491 10 0 60655 12600.00000 0 20559110.263 -13854930.075 6207042.081 10 0 60655 13500.00000 0 19745976.283 -13341905.465 9242403.953 10 0 60655 14400.00000 0 18724589.914 -12507773.134 12099320.414 10 0 60655 15300.00000 0 17553342.633 -11341610.048 14722702.548 10 0 60655 16200.00000 0 16293418.473 -9845303.055 17061968.770 10 0 60655 17100.00000 0 15006184.384 -8033719.115 19071998.463 10 0 60655 18000.00000 0 13750593.490 -5934344.092 20713983.374 10 0 60655 18900.00000 0 12580707.586 -3586403.914 21956162.318 10 0 60655 19800.00000 0 11543440.200 -1039502.544 22774426.589 10 0 60655 20700.00000 0 10676612.614 1648169.407 23152785.435 10 0 60655 21600.00000 0 10007402.778 4411984.409 23083683.010 10 0 60655 22500.00000 0 9551251.323 7183300.504 22568160.385 10 0 60655 23400.00000 0 9311270.742 9892059.531 21615858.393 10 0 60655 24300.00000 0 9278183.579 12469456.428 20244859.533 10 0 60655 25200.00000 0 9430794.076 14850571.293 18481369.670 10 0 60655 26100.00000 0 9736975.836 16976856.300 16359243.023 10 0 60655 27000.00000 0 10155136.564 18798374.604 13919356.806 10 0 60655 27900.00000 0 10636100.642 20275697.446 11208844.912 10 0 60655 28800.00000 0 11125332.156 21381378.898 8280203.162 10 0 60655 29700.00000 0 11565405.672 22100944.562 5190281.707 10 0 60655 30600.00000 0 11898620.573 22433350.462 1999183.092 10 0 60655 31500.00000 0 12069647.463 22390890.480 -1230912.720 10 0 60655 32400.00000 0 12028092.722 21998554.282 -4436972.854 10 0 60655 33300.00000 0 11730869.863 21292861.381 -7556360.290 10 0 60655 34200.00000 0 11144273.937 20320220.000 -10528080.422 10 0 60655 35100.00000 0 10245667.579 19134880.376 -13293998.636 10 0 60655 36000.00000 0 9024703.913 17796570.181 -15800002.501 10 0 60655 36900.00000 0 7484031.588 16367913.884 -17997083.252 10 0 60655 37800.00000 0 5639449.851 14911747.422 -19842313.193 10 0 60655 38700.00000 0 3519505.643 13488444.059 -21299698.152 10 0 60655 39600.00000 0 1164549.073 12153366.573 -22340887.152 10 0 60655 40500.00000 0 -1374712.763 10954554.998 -22945724.955 10 0 60655 41400.00000 0 -4039102.096 9930748.350 -23102636.901 10 0 60655 42300.00000 0 -6763216.536 9109823.802 -22808839.303 10 0 60655 43200.00000 0 -9477939.460 8507718.115 -22070372.632 10 0 60655 44100.00000 0 -12113108.494 8127874.970 -20901958.534 10 0 60655 45000.00000 0 -14600229.719 7961238.946 -19326685.396 10 0 60655 45900.00000 0 -16875123.995 7986793.369 -17375530.640 10 0 60655 46800.00000 0 -18880395.439 8172616.129 -15086731.042 10 0 60655 47700.00000 0 -20567620.187 8477405.819 -12505015.224 10 0 60655 48600.00000 0 -21899166.099 8852411.004 -9680714.883 10 0 60655 49500.00000 0 -22849570.010 9243679.049 -6668773.341 10 0 60655 50400.00000 0 -23406417.998 9594528.087 -3527671.659 10 0 60655 51300.00000 0 -23570695.172 9848137.163 -318293.654 10 0 60655 52200.00000 0 -23356593.515 9950145.376 2897248.110 10 0 60655 53100.00000 0 -22790788.680 9851151.203 6056803.017 10 0 60655 54000.00000 0 -21911218.294 9509008.020 9099367.629 10 0 60655 54900.00000 0 -20765414.399 8890820.732 11966243.888 10 0 60655 55800.00000 0 -19408460.406 7974561.205 14602149.598 10 0 60655 56700.00000 0 -17900657.766 6750235.952 16956261.750 10 0 60655 57600.00000 0 -16304998.709 5220557.936 18983174.709 10 0 60655 58500.00000 0 -14684548.886 3401094.407 20643756.900 10 0 60655 59400.00000 0 -13099846.897 1319883.810 21905891.428 10 0 60655 60300.00000 0 -11606426.825 -983464.052 22745087.958 10 0 60655 61200.00000 0 -10252564.829 -3459149.600 23144955.120 10 0 60655 62100.00000 0 -9077341.910 -6048992.603 23097524.761 10 0 60655 63000.00000 0 -8109102.431 -8688597.264 22603421.517 10 0 60655 63900.00000 0 -7364372.292 -11309787.025 21671873.368 10 0 60655 64800.00000 0 -6847282.356 -13843211.408 20320561.299 10 0 60655 65700.00000 0 -6549522.413 -16221019.490 18575308.661 10 0 60655 66600.00000 0 -6450829.428 -18379490.865 16469613.584 10 0 60655 67500.00000 0 -6519991.776 -20261515.620 14044030.704 10 0 60655 68400.00000 0 -6716329.486 -21818819.939 11345411.384 10 0 60655 69300.00000 0 -6991590.156 -23013843.323 8426014.854 10 0 60655 70200.00000 0 -7292181.968 -23821187.068 5342505.669 10 0 60655 71100.00000 0 -7561650.026 -24228570.890 2154855.878 10 0 60655 72000.00000 0 -7743290.898 -24237254.883 -1074826.947 10 0 60655 72900.00000 0 -7782793.190 -23861906.643 -4283522.403 10 0 60655 73800.00000 0 -7630789.987 -23129917.147 -7408545.453 10 0 60655 74700.00000 0 -7245211.932 -22080192.989 -10388793.713 10 0 60655 75600.00000 0 -6593337.795 -20761475.586 -13165967.049 10 0 60655 76500.00000 0 -5653452.156 -19230258.844 -15685733.005 10 0 60655 77400.00000 0 -4416036.820 -17548394.568 -17898812.714 10 0 60655 78300.00000 0 -2884442.853 -15780488.645 -19761963.795 10 0 60655 79200.00000 0 -1075012.971 -13991200.126 -21238839.235 10 0 60655 80100.00000 0 983352.007 -12242559.317 -22300704.285 10 0 60655 81000.00000 0 3250164.567 -10591419.788 -22926996.856 10 0 60655 81900.00000 0 5674818.510 -9087152.792 -23105720.650 10 0 60655 82800.00000 0 8198490.804 -7769681.541 -22833664.113 10 0 60655 83700.00000 0 10756396.257 -6667937.421 -22116442.235 10 0 60655 84600.00000 0 13280299.205 -5798801.546 -20968362.064 10 0 60655 85500.00000 0 15701175.940 -5166573.773 -19412116.451 10 0 60656 0.00000 0 17951915.707 -4762988.494 -17478314.247 10 0 60656 900.00000 0 19969948.442 -4567772.913 -15204856.981 10 0 60656 1800.00000 0 21699687.139 -4549721.251 -12636178.721 10 0 60656 2700.00000 0 23094688.130 -4668235.558 -9822362.119 10 0 60656 3600.00000 0 24119438.039 -4875265.895 -6818151.633 10 0 60656 4500.00000 0 24750696.461 -5117565.583 -3681883.155 10 0 60656 5400.00000 0 24978340.961 -5339165.045 -474351.486 10 0 60656 6300.00000 0 24805682.007 -5483959.317 2742362.313 10 0 60656 7200.00000 0 24249237.500 -5498300.346 5906081.330 10 0 60656 8100.00000 0 23337978.686 -5333485.724 8955718.830 10 0 60656 9000.00000 0 22112080.715 -4948040.394 11832438.291 10 0 60656 9900.00000 0 20621230.994 -4309696.894 14480766.703 10 0 60656 10800.00000 0 18922566.053 -3396992.419 16849641.613 10 0 60656 11700.00000 0 17078322.193 -2200416.799 18893373.886 10 0 60656 12600.00000 0 15153296.369 -723063.771 20572509.679 10 0 60656 13500.00000 0 13212220.953 1019241.961 21854577.011 10 0 60656 14400.00000 0 11317159.266 2998348.451 22714704.137 10 0 60656 15300.00000 0 9525027.792 5174696.231 23136098.905 10 0 60656 16200.00000 0 7885345.937 7498718.622 23110380.317 10 0 60656 17100.00000 0 6438305.257 9912667.797 22637755.662 10 0 60656 18000.00000 0 5213237.488 12352794.332 21727038.815 10 0 60656 18900.00000 0 4227544.993 14751793.265 20395507.662 10 0 60656 19800.00000 0 3486138.805 17041418.140 18668601.155 10 0 60656 20700.00000 0 2981409.018 19155156.744 16579459.209 10 0 60656 21600.00000 0 2693730.551 21030858.593 14168311.533 10 0 60656 22500.00000 0 2592485.072 22613205.049 11481724.458 10 0 60656 23400.00000 0 2637558.055 23855918.194 8571717.985 10 0 60656 24300.00000 0 2781249.472 24723614.434 5494768.358 10 0 60656 25200.00000 0 2970518.336 25193222.789 2310714.357 10 0 60656 26100.00000 0 3149466.261 25254905.517 -918411.599 10 0 60656 27000.00000 0 3261953.936 24912439.578 -4129604.266 10 0 60656 27900.00000 0 3254237.814 24183040.310 -7260133.143 10 0 60656 28800.00000 0 3077512.554 23096632.861 -10248790.422 10 0 60656 29700.00000 0 2690248.250 21694601.016 -13037112.531 10 0 60656 30600.00000 0 2060219.915 20028066.008 -15570548.804 10 0 60656 31500.00000 0 1166139.921 18155768.658 -17799551.795 10 0 60656 32400.00000 0 -1178.634 16141645.643 -19680565.686 10 0 60656 33300.00000 0 -1438179.115 14052203.963 -21176891.620 10 0 60656 34200.00000 0 -3128467.706 11953806.341 -22259411.827 10 0 60656 35100.00000 0 -5043273.499 9909983.795 -22907157.864 10 0 60656 36000.00000 0 -7142442.808 7978889.797 -23107712.012 10 0 60656 36900.00000 0 -9375925.031 6211003.835 -22857434.736 10 0 60656 37800.00000 0 -11685686.414 4647180.581 -22161515.050 10 0 60656 38700.00000 0 -14007970.004 3317125.466 -21033844.474 10 0 60656 39600.00000 0 -16275805.671 2238358.534 -19496718.964 10 0 60656 40500.00000 0 -18421664.020 1415707.241 -17580376.643 10 0 60656 41400.00000 0 -20380142.565 841345.980 -15322382.346 10 0 60656 42300.00000 0 -22090571.785 495376.994 -12766872.867 10 0 60656 43200.00000 0 -23499432.844 346924.435 -9963679.212 10 0 60656 44100.00000 0 -24562487.251 355692.143 -6967344.295 10 0 60656 45000.00000 0 -25246531.391 473916.609 -3836056.135 10 0 60656 45900.00000 0 -25530704.983 648630.741 -630517.839 10 0 60656 46800.00000 0 -25407301.404 824141.724 2587223.657 10 0 60656 47700.00000 0 -24882048.604 944618.139 5754967.700 10 0 60656 48600.00000 0 -23973851.248 956677.711 8811546.724 10 0 60656 49500.00000 0 -22714006.680 811867.758 11697988.104 10 0 60656 50400.00000 0 -21144928.638 468935.345 14358630.226 10 0 60656 51300.00000 0 -19318432.272 -104206.687 16742173.219 10 0 60656 52200.00000 0 -17293651.459 -928899.001 18802646.211 10 0 60656 53100.00000 0 -15134673.832 -2014605.688 20500274.546 10 0 60656 54000.00000 0 -12907989.930 -3358281.909 21802232.255 10 0 60656 54900.00000 0 -10679860.075 -4944266.307 22683266.889 10 0 60656 55800.00000 0 -8513705.780 -6744704.186 23126185.819 10 0 60656 56700.00000 0 -6467631.473 -8720486.199 23122195.112 10 0 60656 57600.00000 0 -4592177.310 -10822666.516 22671084.269 10 0 60656 58500.00000 0 -2928394.908 -12994304.922 21781252.266 10 0 60656 59400.00000 0 -1506325.163 -15172659.829 20469572.793 10 0 60656 60300.00000 0 -343941.547 -17291644.285 18761099.024 10 0 60656 61200.00000 0 553396.299 -19284445.531 16688611.018 10 0 60656 62100.00000 0 1192954.462 -21086200.845 14292011.676 10 0 60656 63000.00000 0 1594099.895 -22636618.942 11617580.190 10 0 60656 63900.00000 0 1787258.927 -23882437.127 8717095.066 10 0 60656 64800.00000 0 1812401.301 -24779610.070 5646841.819 10 0 60656 65700.00000 0 1717112.488 -25295136.252 2466523.478 10 0 60656 66600.00000 0 1554335.250 -25408442.560 -761905.229 10 0 60656 67500.00000 0 1379876.460 -25112265.758 -3975456.765 10 0 60656 68400.00000 0 1249786.167 -24412990.722 -7111357.705 10 0 60656 69300.00000 0 1217722.214 -23330428.682 -10108297.330 10 0 60656 70200.00000 0 1332415.055 -21897043.009 -12907651.107 10 0 60656 71100.00000 0 1635343.516 -20156654.265 -15454652.537 10 0 60656 72000.00000 0 2158723.331 -18162679.178 -17699487.841 10 0 60656 72900.00000 0 2923896.718 -15975978.607 -19598289.782 10 0 60656 73800.00000 0 3940193.643 -13662406.663 -21114009.379 10 0 60656 74700.00000 0 5204314.710 -11290166.034 -22217147.193 10 0 60656 75600.00000 0 6700262.645 -8927082.643 -22886329.360 10 0 60656 76500.00000 0 8399825.415 -6637915.736 -23108717.239 10 0 60656 77400.00000 0 10263589.965 -4481817.382 -22880243.360 10 0 60656 78300.00000 0 12242442.784 -2510048.176 -22205670.394 10 0 60656 79200.00000 0 14279492.733 -764044.207 -21098473.574 10 0 60656 80100.00000 0 16312333.812 726085.329 -19580550.815 10 0 60656 81000.00000 0 18275551.538 1942569.451 -17681768.190 10 0 60656 81900.00000 0 20103366.830 2880456.518 -15439351.615 10 0 60656 82800.00000 0 21732306.089 3547548.685 -12897138.500 10 0 60656 83700.00000 0 23103785.788 3963796.415 -10104705.587 10 0 60656 84600.00000 0 24166504.164 4160182.257 -7116391.286 10 0 60656 85500.00000 0 24878541.290 4177144.263 -3990232.520 99